TimeMST,TemperatureF,Dew PointF,Humidity,Sea Level PressureIn,VisibilityMPH,Wind Direction,Wind SpeedMPH,Gust SpeedMPH,PrecipitationIn,Events,Conditions,WindDirDegrees,DateUTC
12:01 AM,17.6,15.8,93,30.25,1.8,Calm,Calm,-,N/A,,Overcast,0,2013-02-02 07:01:00
12:07 AM,17.6,15.8,93,30.25,0.8,SW,3.5,-,N/A,,Mist,220,2013-02-02 07:07:00
12:53 AM,18.0,17.1,96,30.42,0.2,SE,4.6,-,N/A,Fog,Light Freezing Fog,140,2013-02-02 07:53:00
2:53 AM,17.1,15.1,92,30.43,0.2,SSE,3.5,-,N/A,Fog,Light Freezing Fog,160,2013-02-02 09:53:00
3:53 AM,15.1,14.0,95,30.43,0.2,Calm,Calm,-,N/A,Fog,Light Freezing Fog,0,2013-02-02 10:53:00
5:53 AM,10.9,9.0,92,30.45,1.2,Calm,Calm,-,N/A,,Overcast,0,2013-02-02 12:53:00
5:56 AM,10.4,8.6,92,30.28,3.0,Calm,Calm,-,N/A,,Overcast,0,2013-02-02 12:56:00
6:18 AM,10.4,8.6,92,30.28,1.8,Calm,Calm,-,N/A,,Overcast,0,2013-02-02 13:18:00
6:24 AM,10.4,8.6,92,30.28,0.8,Calm,Calm,-,N/A,,Mist,0,2013-02-02 13:24:00
6:53 AM,12.0,9.0,88,30.47,0.2,Calm,Calm,-,N/A,Fog,Light Freezing Fog,0,2013-02-02 13:53:00
7:53 AM,12.0,9.0,88,30.48,0.2,WNW,3.5,-,N/A,Fog,Light Freezing Fog,300,2013-02-02 14:53:00
8:53 AM,10.9,8.1,88,30.51,0.2,East,5.8,-,N/A,Fog,Light Freezing Fog,100,2013-02-02 15:53:00
9:53 AM,10.9,10.0,96,30.54,0.2,Calm,Calm,-,N/A,Fog,Light Freezing Fog,0,2013-02-02 16:53:00
10:38 AM,12.2,10.4,92,30.36,1.2,Calm,Calm,-,N/A,,Overcast,0,2013-02-02 17:38:00
10:45 AM,12.2,12.2,100,30.36,3.0,Calm,Calm,-,N/A,,Overcast,0,2013-02-02 17:45:00
10:53 AM,12.9,12.0,96,30.55,9.0,Calm,Calm,-,N/A,,Overcast,0,2013-02-02 17:53:00
11:53 AM,15.1,14.0,95,30.55,10.0,Calm,Calm,-,N/A,,Scattered Clouds,0,2013-02-02 18:53:00
12:53 PM,18.0,15.1,88,30.53,6.0,East,3.5,-,N/A,,Clear,100,2013-02-02 19:53:00
1:53 PM,19.9,16.0,85,30.51,10.0,SE,5.8,-,N/A,,Clear,130,2013-02-02 20:53:00
2:53 PM,21.9,17.1,82,30.49,10.0,Calm,Calm,-,N/A,,Clear,0,2013-02-02 21:53:00
3:53 PM,21.0,17.1,85,30.49,10.0,West,3.5,-,N/A,,Clear,260,2013-02-02 22:53:00
4:53 PM,17.1,12.9,84,30.49,10.0,NW,5.8,-,N/A,,Clear,310,2013-02-02 23:53:00
5:53 PM,12.9,10.0,88,30.51,10.0,NW,6.9,-,N/A,,Clear,310,2013-02-03 00:53:00
6:53 PM,9.0,6.1,88,30.51,10.0,WNW,3.5,-,N/A,,Clear,300,2013-02-03 01:53:00
7:53 PM,5.0,3.0,92,30.51,10.0,Calm,Calm,-,N/A,,Clear,0,2013-02-03 02:53:00
8:53 PM,5.0,1.9,87,30.51,10.0,West,3.5,-,N/A,,Clear,260,2013-02-03 03:53:00
9:53 PM,3.9,1.0,88,30.51,10.0,Calm,Calm,-,N/A,,Clear,0,2013-02-03 04:53:00
10:53 PM,3.0,-0.9,84,30.49,10.0,South,3.5,-,N/A,,Clear,170,2013-02-03 05:53:00
11:53 PM,3.0,-0.0,87,30.48,9.0,SE,3.5,-,N/A,,Clear,130,2013-02-03 06:53:00